Flag for Germany Weather past 2 weeks in Idar-Oberstein, Rhineland-Palatinate, Germany

Now
39 °F

Passing clouds.


Feels Like: 29 °F
Forecast: 37 / 47 °F
Wind: 21 mph from Southwest

Location: Hahn

Current Time: Dec 22, 2014 at 4:43:05 AM

Latest Report: Dec 22, 2014 at 3:50 AM


Visibility: N/A

Pressure: 30.24 "Hg

Humidity: 93%

Dew point: 37 °F

Location of Idar-ObersteinLocation

Historic Weather in Idar-Oberstein — Graph

°F

Idar-Oberstein temperature yesterday

Maximum temperature yesterday: 39 °F (at 11:20 AM)
Minimum temperature yesterday: 36 °F (at 7:20 AM)
Average temperature yesterday: 38 °F

Past Weeks' High & Low Weather Summary

 TemperatureHumidityPressure
High50 °F (Dec 18, 12:50 PM)100% (Dec 7, 3:20 AM)30.42 "Hg (Dec 7, 3:20 AM)
Low30 °F (Dec 9, 3:50 AM)56% (Dec 7, 11:50 AM)29.53 "Hg (Dec 12, 3:50 PM)
Average38 °F94%30.00 "Hg
* Reported Dec 7 3:20 AM — Dec 22 3:20 AM, Idar-Oberstein, Weather by CustomWeather, © 2014

Note: Actual official high and low records may vary slightly from our data, if they occured in-between our weather recording intervals... More about our weather records

Advertising

Idar-Oberstein weather history for previous 24 hours

 ConditionsComfort  
Time TempWeatherWind HumidityBarometerVisibility
3:20 AM
Dec 22
39 °FPassing clouds.18 mph93%30.24 "HgN/A
2:50 AM39 °FPassing clouds.21 mph93%30.24 "HgN/A
2:20 AM39 °FPassing clouds.20 mph93%30.27 "HgN/A
1:50 AM39 °FPassing clouds.21 mph93%30.27 "HgN/A
1:20 AM39 °FPassing clouds.21 mph93%30.27 "HgN/A
12:50 AM39 °FPassing clouds.23 mph93%30.27 "HgN/A
12:20 AM39 °FPassing clouds.22 mph93%30.30 "HgN/A
11:50 PM
Dec 21
39 °FPassing clouds.23 mph93%30.30 "HgN/A
11:20 PM39 °FPassing clouds.24 mph93%30.30 "HgN/A
10:50 PM39 °FPassing clouds.24 mph87%30.30 "HgN/A
10:20 PM39 °FPassing clouds.22 mph93%30.30 "HgN/A
9:50 PM39 °FPassing clouds.22 mph93%30.30 "HgN/A
9:20 PM39 °FPassing clouds.25 mph93%30.30 "HgN/A
8:50 PM39 °FPassing clouds.23 mph93%30.33 "HgN/A
8:20 PM39 °FPassing clouds.22 mph93%30.33 "HgN/A
7:50 PM39 °FPassing clouds.17 mph87%30.33 "HgN/A
7:20 PM39 °FPassing clouds.20 mph93%30.33 "HgN/A
6:50 PM39 °FPassing clouds.20 mph93%30.33 "HgN/A
6:20 PM39 °FLight rain. Passing clouds.20 mph93%30.33 "HgN/A
5:50 PM39 °FPassing clouds.18 mph93%30.33 "HgN/A
5:20 PM39 °FPassing clouds.15 mph87%30.33 "HgN/A
4:50 PM39 °FPassing clouds.16 mph87%30.33 "HgN/A
4:20 PM39 °FBroken clouds.13 mph87%30.36 "HgN/A
3:50 PM39 °FPartly sunny.14 mph93%30.36 "HgN/A
3:20 PM39 °FLight rain. Broken clouds.17 mph87%30.36 "HgN/A
2:50 PM39 °FBroken clouds.14 mph87%30.36 "HgN/A
2:20 PM39 °FBroken clouds.14 mph87%30.39 "HgN/A
1:50 PM39 °FBroken clouds.13 mph87%30.39 "HgN/A
1:20 PM39 °FPartly sunny.16 mph87%30.39 "HgN/A
12:50 PM39 °FBroken clouds.16 mph87%30.39 "HgN/A
12:20 PM39 °FPartly sunny.15 mph87%30.42 "HgN/A
11:50 AM39 °FBroken clouds.15 mph87%30.42 "HgN/A
11:20 AM39 °FBroken clouds.16 mph87%30.42 "HgN/A
10:50 AM37 °FBroken clouds.14 mph93%30.42 "HgN/A
10:20 AM37 °FBroken clouds.10 mph93%30.42 "HgN/A
9:50 AM37 °FPartly sunny.12 mph93%30.42 "HgN/A
9:20 AM37 °FBroken clouds.10 mph93%30.42 "HgN/A
8:50 AM37 °FPartly sunny.12 mph93%30.42 "HgN/A
8:20 AM36 °FPartly cloudy.10 mph100%30.42 "HgN/A
7:50 AM36 °FPartly cloudy.14 mph100%30.42 "HgN/A
7:20 AM36 °FPassing clouds.9 mph100%30.42 "HgN/A
6:50 AM37 °FPassing clouds.10 mph93%30.42 "HgN/A
6:20 AM37 °FPassing clouds.12 mph93%30.42 "HgN/A
5:50 AM37 °FPassing clouds.12 mph93%30.42 "HgN/A
5:20 AM37 °FPassing clouds.13 mph93%30.39 "HgN/A
4:50 AM37 °FPassing clouds.9 mph93%30.42 "HgN/A
4:20 AM37 °FPassing clouds.13 mph93%30.42 "HgN/A
Weather by CustomWeather, © 2014

See weather overviewHow to use our weather pages